Pontiac, MI

8:15 AM EST on December 18, 2017 (GMT -0500)
Oakland County International

Weather History for KPTK - August, 2012

Change the Weather History Date:

Thursday, August 9, 2012

  Actual Average Record
Temperature  
Mean Temperature 65 °F -  
Max Temperature 70 °F 78 °F 93 °F (2001)
Min Temperature 60 °F 59 °F 50 °F (1999)
Growing Degree Days 15 (Base 50)    
Moisture  
Dew Point 62 °F    
Average Humidity 94    
Maximum Humidity 100    
Minimum Humidity 76    
Precipitation  
Precipitation 0.77 in - - ()
Sea Level Pressure  
Sea Level Pressure 29.90 in    
Wind  
Wind Speed 6 mph (NE)    
Max Wind Speed 10 mph    
Max Gust Speed -    
Visibility 4 miles    
Events Rain    
Averages and records for this station are not official NWS values.
T = Trace of Precipitation, MM = Missing Value Source: NWS Daily Summary

Daily Weather History Graph

Daily Weather History Graph

Search for Another Location

Airport or City:

Trip Planner

Search our weather history database for the weather conditions in past years. The results will help you decide how hot, cold, wet, or windy it might be!

Date:

Astronomy

Aug. 09, 2012 Rise Set
Actual Time 6:34 AM EDT 8:43 PM EDT
Civil Twilight 6:03 AM EDT 9:14 PM EDT
Nautical Twilight 5:25 AM EDT 9:52 PM EDT
Astronomical Twilight 4:42 AM EDT 10:33 PM EDT
Moon No Moon Rise 2:27 PM EDT (8/9)
Length of Visible Light 15h 10m
Length of Day
14h 08m
Waning Gibbous, 51% of the Moon is Illuminated
Aug 9
Waning Gibbous
Aug 9
Last Quarter
Aug 17
New
Aug 24
First Quarter
Aug 31
Full

Hourly Weather History & Observations

Time (EDT) Temp. Dew Point Humidity Pressure Visibility Wind Dir Wind Speed Gust Speed Precip Events Conditions
12:53 AM 70.0 °F 62.1 °F 76% 29.95 in 10.0 mi ESE 6.9 mph - N/A   Overcast
1:53 AM 69.1 °F 63.0 °F 81% 29.93 in 10.0 mi East 8.1 mph - N/A   Overcast
2:53 AM 68.0 °F 63.0 °F 84% 29.94 in 10.0 mi East 3.5 mph - N/A   Overcast
3:53 AM 68.0 °F 64.0 °F 87% 29.95 in 10.0 mi NE 3.5 mph - 0.00 in   Overcast
4:53 AM 66.0 °F 64.9 °F 96% 29.95 in 10.0 mi NNE 8.1 mph - 0.00 in   Overcast
5:53 AM 64.9 °F 62.1 °F 90% 29.93 in 10.0 mi NNE 8.1 mph - 0.02 in Rain Light Rain
6:53 AM 64.9 °F 62.1 °F 90% 29.93 in 10.0 mi North 6.9 mph - 0.00 in   Overcast
7:53 AM 64.9 °F 62.1 °F 90% 29.94 in 10.0 mi Calm Calm - 0.00 in Rain Light Rain
8:21 AM 64.4 °F 62.6 °F 94% 29.95 in 9.0 mi North 3.5 mph - 0.01 in Rain Light Rain
8:53 AM 64.9 °F 63.0 °F 93% 29.96 in 5.0 mi NNW 4.6 mph - 0.05 in Rain Rain
9:16 AM 64.4 °F 64.4 °F 100% 29.98 in 2.5 mi Calm Calm - 0.06 in Rain Rain
9:48 AM 64.4 °F 64.4 °F 100% 29.96 in 2.0 mi NNE 6.9 mph - 0.21 in Rain Heavy Rain
9:53 AM 64.9 °F 64.0 °F 97% 29.94 in 2.5 mi NNE 5.8 mph - 0.21 in Rain Rain
10:12 AM 64.4 °F 64.4 °F 100% 29.96 in 4.0 mi Calm Calm - 0.04 in Rain Rain
10:20 AM 64.4 °F 64.4 °F 100% 29.96 in 3.0 mi Calm Calm - 0.07 in Rain Rain
10:30 AM 64.4 °F 62.6 °F 94% 29.96 in 3.0 mi North 9.2 mph - 0.11 in Rain Heavy Rain
10:40 AM 64.4 °F 62.6 °F 94% 29.95 in 3.0 mi NNE 8.1 mph - 0.14 in Rain Rain
10:53 AM 64.0 °F 63.0 °F 96% 29.94 in 3.0 mi NE 6.9 mph - 0.18 in Rain Rain
11:00 AM 64.4 °F 62.6 °F 94% 29.95 in 3.0 mi NE 5.8 mph - 0.01 in Rain Rain
11:12 AM 64.4 °F 62.6 °F 94% 29.94 in 3.0 mi NE 9.2 mph - 0.02 in Rain Light Rain
11:25 AM 64.4 °F 62.6 °F 94% 29.94 in 3.0 mi NE 9.2 mph - 0.04 in Rain Light Rain
11:53 AM 64.0 °F 62.1 °F 93% 29.93 in 3.0 mi ENE 8.1 mph - 0.06 in Rain Rain
12:53 PM 63.0 °F 62.1 °F 97% 29.92 in 3.0 mi NNE 5.8 mph - 0.10 in Rain Rain
1:00 PM 62.6 °F 60.8 °F 94% 29.93 in 3.0 mi NE 8.1 mph - 0.02 in Rain Rain
1:53 PM 63.0 °F 61.0 °F 93% 29.91 in 3.0 mi NE 5.8 mph - 0.04 in Rain Light Rain
2:53 PM 64.0 °F 62.1 °F 93% 29.90 in 3.0 mi ENE 4.6 mph - 0.00 in   Overcast
3:26 PM 64.4 °F 60.8 °F 88% 29.91 in 3.0 mi ENE 5.8 mph - N/A   Overcast
3:45 PM 64.4 °F 62.6 °F 94% 29.90 in 3.0 mi ENE 3.5 mph - N/A   Overcast
3:53 PM 64.9 °F 61.0 °F 87% 29.88 in 3.0 mi ENE 4.6 mph - N/A   Overcast
4:12 PM 64.4 °F 62.6 °F 94% 29.89 in 3.0 mi ENE 3.5 mph - N/A   Overcast
4:26 PM 64.4 °F 62.6 °F 94% 29.88 in 3.0 mi Calm Calm - N/A   Overcast
4:53 PM 64.9 °F 62.1 °F 90% 29.87 in 10.0 mi NE 4.6 mph - 0.00 in Rain Light Rain
5:27 PM 64.4 °F 62.6 °F 94% 29.88 in 2.5 mi NE 3.5 mph - 0.01 in Rain Light Rain
5:40 PM 64.4 °F 62.6 °F 94% 29.88 in 2.0 mi NE 4.6 mph - 0.01 in Rain Light Rain
5:49 PM 64.4 °F 62.6 °F 94% 29.88 in 1.8 mi ENE 4.6 mph - 0.01 in Rain Light Rain
5:53 PM 64.0 °F 63.0 °F 96% 29.87 in 1.8 mi NE 4.6 mph - 0.01 in Rain Light Rain
6:02 PM 64.4 °F 62.6 °F 94% 29.88 in 2.0 mi NE 3.5 mph - 0.00 in   Light Drizzle
6:12 PM 64.4 °F 62.6 °F 94% 29.87 in 2.5 mi NE 6.9 mph - 0.00 in   Light Drizzle
6:25 PM 64.4 °F 62.6 °F 94% 29.87 in 2.0 mi NE 6.9 mph - 0.01 in   Light Drizzle
6:30 PM 64.4 °F 62.6 °F 94% 29.87 in 2.0 mi NNE 8.1 mph - 0.01 in   Light Drizzle
6:53 PM 64.0 °F 63.0 °F 96% 29.86 in 2.0 mi ENE 4.6 mph - 0.01 in   Light Drizzle
7:03 PM 64.4 °F 62.6 °F 94% 29.87 in 1.5 mi NE 4.6 mph - 0.02 in   Light Drizzle
7:09 PM 64.4 °F 62.6 °F 94% 29.87 in 2.5 mi NNE 5.8 mph - 0.02 in Rain Light Rain
7:24 PM 64.4 °F 62.6 °F 94% 29.87 in 1.2 mi NE 5.8 mph - 0.05 in Rain Light Rain
7:46 PM 62.6 °F 62.6 °F 100% 29.87 in 0.8 mi NE 6.9 mph - 0.07 in Rain Light Rain
7:50 PM 62.6 °F 62.6 °F 100% 29.87 in 1.0 mi NE 5.8 mph - 0.07 in Rain Rain
7:53 PM 63.0 °F 62.1 °F 97% 29.86 in 1.2 mi NE 5.8 mph - 0.08 in Rain Light Rain
7:59 PM 62.6 °F 60.8 °F 94% 29.87 in 2.0 mi NE 9.2 mph - 0.00 in Rain Light Rain
8:23 PM 62.6 °F 60.8 °F 94% 29.86 in 3.0 mi ENE 8.1 mph - 0.00 in Rain Light Rain
8:28 PM 62.6 °F 60.8 °F 94% 29.86 in 4.0 mi ENE 5.8 mph - 0.00 in Rain Light Rain
8:44 PM 62.6 °F 60.8 °F 94% 29.87 in 7.0 mi ENE 5.8 mph - 0.01 in   Light Drizzle
8:53 PM 62.1 °F 61.0 °F 96% 29.86 in 6.0 mi ENE 5.8 mph - 0.01 in   Light Drizzle
9:00 PM 62.6 °F 60.8 °F 94% 29.87 in 3.0 mi NE 5.8 mph - 0.00 in   Light Drizzle
9:07 PM 62.6 °F 60.8 °F 94% 29.86 in 3.0 mi NE 6.9 mph - 0.00 in   Light Drizzle
9:14 PM 62.6 °F 60.8 °F 94% 29.86 in 2.0 mi NNE 6.9 mph - 0.00 in   Light Drizzle
9:37 PM 60.8 °F 60.8 °F 100% 29.87 in 3.0 mi NNE 10.4 mph - 0.00 in Rain Light Rain
9:53 PM 61.0 °F 60.1 °F 97% 29.86 in 9.0 mi NE 9.2 mph - 0.00 in   Overcast
10:08 PM 60.8 °F 60.8 °F 100% 29.87 in 10.0 mi NE 6.9 mph - N/A   Overcast
10:34 PM 60.8 °F 60.8 °F 100% 29.86 in 10.0 mi NE 5.8 mph - N/A   Overcast
10:53 PM 61.0 °F 60.1 °F 97% 29.85 in 10.0 mi NNE 3.5 mph - N/A   Overcast
11:53 PM 62.1 °F 60.1 °F 93% 29.81 in 10.0 mi NE 9.2 mph - N/A   Overcast